Zurück zum Katalog

ALOUETTE 1

S-27

AktivWissenschaftPO
NORAD 424·PAYLOAD·🇨🇦 Canada

Gestartet Sep 29, 1962 von Vandenberg Space Force Base

Loading…

Nächste Überflüge (nächste 24 Stunden)

TLE

AktuellSource: Space-Track

Epoche: Sep 14, 2026, 10:58 UTC

1 00424U 62049A   26257.45723586  .00000081  00000-0  82045-4 0  9995
2 00424  80.4694 168.0558 0023491   8.6474 351.5072 13.69602533193334

Verfolge ALOUETTE 1 in Echtzeit mit AllMySat

Download on the App Store